CDT,Max TemperatureF,Mean TemperatureF,Min TemperatureF,Max Dew PointF,MeanDew PointF,Min DewpointF,Max Humidity, Mean Humidity, Min Humidity, Max Sea Level PressureIn, Mean Sea Level PressureIn, Min Sea Level PressureIn, Max VisibilityMiles, Mean VisibilityMiles, Min VisibilityMiles, Max Wind SpeedMPH, Mean Wind SpeedMPH, Max Gust SpeedMPH,PrecipitationIn, CloudCover, Events, WindDirDegrees
2013-8-1,81,68,57,64,58,52,100,76,39,30.01,29.97,29.89,10,7,0,16,4,22,0.23,2,Fog-Rain,287
2013-8-2,82,72,60,65,60,55,96,74,42,29.97,29.88,29.83,10,8,2,12,3,,0.09,3,Rain-Thunderstorm,310
2013-8-3,79,66,53,58,54,49,97,69,37,30.15,30.07,29.98,10,10,7,10,4,,0.00,1,,298
2013-8-4,77,62,50,63,55,49,96,76,44,30.23,30.16,30.09,10,10,7,7,2,,0.01,2,Rain,52
2013-8-5,73,65,57,67,62,55,100,89,68,30.10,29.94,29.83,10,6,0,14,3,17,0.20,6,Fog-Rain,132
2013-8-6,84,74,66,72,67,64,100,86,58,29.89,29.83,29.76,10,5,0,9,1,,0.00,6,Fog,224
2013-8-7,80,71,63,72,65,60,100,75,56,29.97,29.85,29.74,10,9,4,14,5,20,0.00,2,,304
2013-8-8,81,68,57,66,60,55,93,74,47,30.05,30.00,29.96,10,10,8,7,2,,0.00,3,,213
2013-8-9,81,70,60,64,60,55,100,85,44,30.07,30.00,29.97,10,6,0,10,1,,0.00,5,Fog,287
2013-8-10,78,64,51,61,55,51,100,79,45,30.16,30.13,30.09,10,8,1,9,3,,0.01,3,,294
2013-8-11,75,65,55,66,62,54,97,86,69,30.16,30.08,30.01,10,7,1,8,2,,0.16,7,Rain,245
2013-8-12,82,72,64,67,64,56,100,83,43,30.03,29.98,29.91,10,6,0,12,2,20,0.03,6,Fog-Rain,320
2013-8-13,73,64,54,57,51,45,93,67,39,30.17,30.10,30.01,10,10,10,12,4,17,0.00,3,,15
2013-8-14,77,60,46,60,50,46,100,82,41,30.23,30.19,30.12,10,6,0,8,1,,0.00,4,Fog,267
2013-8-15,79,64,51,59,53,50,100,79,39,30.16,30.13,30.08,10,8,0,7,1,,0.01,5,Fog,280
2013-8-16,82,68,53,60,55,51,100,79,34,30.19,30.17,30.13,10,7,0,6,2,,0.00,4,Fog,286
2013-8-17,82,68,53,61,55,52,100,81,38,30.26,30.21,30.14,10,5,0,7,2,,0.00,2,Fog,117
2013-8-18,82,66,51,62,54,50,100,84,39,30.23,30.18,30.08,10,5,0,6,1,,0.01,3,Fog,211
2013-8-19,82,68,53,67,58,52,100,80,45,30.10,30.06,30.01,10,6,2,12,1,17,0.00,1,,203
2013-8-20,88,74,60,67,63,57,97,74,46,30.04,30.00,29.96,10,7,2,13,3,22,0.00,1,,181
2013-8-21,90,81,72,73,69,64,94,72,53,30.02,29.96,29.90,10,9,5,15,4,24,0.00,2,Rain-Thunderstorm,211
2013-8-22,80,72,64,72,67,64,100,91,64,30.14,30.06,29.96,10,4,0,24,4,38,1.71,4,Fog-Rain-Thunderstorm,299
2013-8-23,82,72,62,66,63,59,100,85,45,30.19,30.14,30.10,10,5,0,8,2,,0.01,3,Fog,110
2013-8-24,84,72,59,70,63,54,87,74,62,30.22,30.16,30.12,10,10,10,10,5,,0.00,2,,117
2013-8-25,89,80,72,73,69,67,84,69,55,30.17,30.11,30.05,10,9,7,14,5,21,0.00,0,,230
2013-8-26,91,80,70,77,71,66,94,75,61,30.08,30.01,29.93,10,9,6,9,3,,0.00,0,,221
2013-8-27,93,82,71,77,73,68,94,76,54,29.92,29.85,29.78,10,9,5,13,3,20,0.00,0,,239
2013-8-28,84,76,69,74,71,66,100,89,67,30.05,29.96,29.83,10,6,1,9,3,,0.00,4,,53
2013-8-29,89,75,62,73,67,63,100,90,57,30.09,30.04,29.93,10,4,0,7,1,,0.01,2,Fog,123
2013-8-30,93,82,71,79,73,66,94,75,59,29.93,29.83,29.75,10,8,3,12,4,17,0.00,3,Thunderstorm,324
2013-8-31,86,75,66,69,66,63,97,77,55,29.88,29.82,29.75,10,10,8,12,6,,0.00,4,,83